Location: Hains Lake
(37.8540°N, 99.8578°W)
Time: 06:59:02
(UTC+00:00)

PAYLOAD B - Pass Details

Date: 11 December 2019
Orbit: 849 x 871 km, 99.1° (Epoch: 17 January)

Event Time Altitude Azimuth Distance (km) Brightness Sun altitude
Rises 12:24:41 0° 9° (N) 3,428 7.3 -15.4°
Reaches altitude 10° 12:27:05 10° 6° (N) 2,490 6.5 -14.9°
Maximum altitude 12:32:30 59° 288° (WNW) 986 4.2 -13.9°
Drops below altitude 10° 12:37:55 10° 210° (SSW) 2,488 6.5 -12.9°
Sets 12:40:19 0° 206° (SSW) 3,424 7.3 -12.4°
